Location: Ferchesar
(52.6477°N, 12.4298°E)
Time: 10:10:12
(UTC+01:00)

S-56A Canister/Altair - Pass Details

Date: 09 December 2021
Orbit: 633 x 2499 km, 38.9° (Epoch: 19 January)

Event Time Altitude Azimuth Distance (km) Brightness Sun altitude
Rises 20:50:56 0° 204° (SSW) 5,979 12.1 -43.1°
Reaches altitude 10° 20:56:32 10° 191° (S) 4,742 11.4 -43.9°
Enters shadow 20:56:54 11° 190° (S) 4,667 11.4 -43.9°
Maximum altitude 21:04:38 20° 151° (SSE) 3,523 - -45.0°
Drops below altitude 10° 21:11:15 10° 110° (ESE) 3,769 - -45.9°
Sets 21:14:58 0° 94° (E) 4,437 - -46.4°
